• In Uzbekistan
  • List of Countries
  • For 7 days
  • Water Temperature
  • Satellite Maps
  • Weather Map
  • Weather Widgets
  • user-avatar
    Login

    Hourly Weather Balho

    Today, 16 July, Monday

    Time Temperature Precipitation Wind Pressure Humidity
    00:00 +39°C° 0 mm 3 mps 731 mmHg 31%
    01:00 +39°C° 0 mm 3 mps 731 mmHg 33%
    02:00 +38°C° 0 mm 2 mps 731 mmHg 34%
    03:00 +38°C° 0 mm 2 mps 731 mmHg 35%
    04:00 +37°C° 0 mm 2 mps 731 mmHg 37%
    05:00 +37°C° 0 mm 3 mps 731 mmHg 38%
    06:00 +36°C° 0 mm 3 mps 732 mmHg 40%
    07:00 +37°C° 0 mm 4 mps 732 mmHg 38%
    08:00 +38°C° 0 mm 4 mps 732 mmHg 36%
    09:00 +39°C° 0 mm 5 mps 732 mmHg 34%
    10:00 +40°C° 0 mm 4 mps 732 mmHg 31%
    11:00 +41°C° 0 mm 4 mps 732 mmHg 29%
    12:00 +42°C° 0 mm 4 mps 732 mmHg 26%
    13:00 +43°C° 0 mm 4 mps 731 mmHg 25%
    14:00 +44°C° 0 mm 4 mps 731 mmHg 23%
    15:00 +45°C° 0 mm 4 mps 730 mmHg 21%
    16:00 +45°C° 0 mm 4 mps 730 mmHg 21%
    17:00 +45°C° 0 mm 5 mps 730 mmHg 21%
    18:00 +45°C° 0 mm 5 mps 730 mmHg 21%
    19:00 +43°C° 0.2 mm 5 mps 730 mmHg 23%
    20:00 +42°C° 0.2 mm 5 mps 730 mmHg 25%
    21:00 +41°C° 0.2 mm 6 mps 731 mmHg 27%
    22:00 +41°C° 0.3 mm 4 mps 731 mmHg 28%
    23:00 +39°C° 0.3 mm 3 mps 731 mmHg 28%

    Tomorrow, 17 July, Tuesday

    Time Temperature Precipitation Wind Pressure Humidity
    00:00 +39°C° 0.3 mm 2 mps 732 mmHg 29%
    01:00 +39°C° 0 mm 2 mps 731 mmHg 29%
    02:00 +37°C° 0 mm 1 mps 731 mmHg 30%
    03:00 +37°C° 0 mm 1 mps 731 mmHg 30%
    04:00 +37°C° 0 mm 2 mps 731 mmHg 31%
    05:00 +37°C° 0 mm 2 mps 732 mmHg 32%
    06:00 +37°C° 0 mm 3 mps 732 mmHg 33%
    07:00 +37°C° 0 mm 3 mps 732 mmHg 33%
    08:00 +38°C° 0 mm 4 mps 732 mmHg 34%
    09:00 +39°C° 0 mm 5 mps 733 mmHg 34%
    10:00 +40°C° 0 mm 5 mps 732 mmHg 31%
    11:00 +41°C° 0 mm 5 mps 732 mmHg 28%
    12:00 +42°C° 0 mm 4 mps 732 mmHg 26%
    13:00 +43°C° 0 mm 4 mps 731 mmHg 24%
    14:00 +44°C° 0 mm 4 mps 731 mmHg 22%
    15:00 +44°C° 0 mm 4 mps 730 mmHg 20%
    16:00 +44°C° 0 mm 4 mps 730 mmHg 19%
    17:00 +45°C° 0 mm 5 mps 730 mmHg 19%
    18:00 +45°C° 0 mm 5 mps 730 mmHg 18%
    19:00 +44°C° 0 mm 6 mps 730 mmHg 21%
    20:00 +42°C° 0 mm 6 mps 730 mmHg 24%
    21:00 +41°C° 0 mm 6 mps 731 mmHg 27%
    22:00 +40°C° 0 mm 5 mps 731 mmHg 29%
    23:00 +40°C° 0 mm 4 mps 731 mmHg 30%

    Day after tomorrow, 18 July, Wednesday

    Time Temperature Precipitation Wind Pressure Humidity
    00:00 +38°C° 0 mm 3 mps 731 mmHg 32%
    01:00 +38°C° 0 mm 3 mps 731 mmHg 32%
    02:00 +37°C° 0 mm 3 mps 731 mmHg 32%
    03:00 +37°C° 0 mm 2 mps 731 mmHg 33%
    04:00 +37°C° 0 mm 2 mps 731 mmHg 33%
    05:00 +37°C° 0 mm 2 mps 731 mmHg 34%
    06:00 +35°C° 0 mm 1 mps 731 mmHg 35%
    07:00 +37°C° 0 mm 2 mps 732 mmHg 33%
    08:00 +38°C° 0 mm 3 mps 732 mmHg 31%
    09:00 +38°C° 0 mm 3 mps 733 mmHg 29%
    10:00 +39°C° 0 mm 3 mps 733 mmHg 28%
    11:00 +41°C° 0 mm 4 mps 733 mmHg 27%
    12:00 +42°C° 0 mm 4 mps 732 mmHg 25%
    13:00 +43°C° 0 mm 4 mps 732 mmHg 24%
    14:00 +43°C° 0 mm 3 mps 731 mmHg 23%
    15:00 +44°C° 0 mm 3 mps 730 mmHg 22%
    16:00 +44°C° 0 mm 3 mps 730 mmHg 21%
    17:00 +44°C° 0 mm 3 mps 730 mmHg 21%
    18:00 +43°C° 0 mm 3 mps 730 mmHg 21%
    19:00 +43°C° 0 mm 3 mps 730 mmHg 23%
    20:00 +42°C° 0 mm 4 mps 731 mmHg 25%
    21:00 +41°C° 0 mm 5 mps 732 mmHg 28%
    22:00 +41°C° 0 mm 4 mps 732 mmHg 29%
    23:00 +40°C° 0 mm 4 mps 732 mmHg 30%

    19 July, Thursday

    Time Temperature Precipitation Wind Pressure Humidity
    00:00 +39°C° 0 mm 3 mps 732 mmHg 31%
    01:00 +38°C° 0.1 mm 3 mps 732 mmHg 33%
    02:00 +37°C° 0.1 mm 2 mps 732 mmHg 34%
    03:00 +37°C° 0.1 mm 2 mps 731 mmHg 35%
    04:00 +36°C° 0 mm 2 mps 732 mmHg 37%
    05:00 +36°C° 0 mm 2 mps 732 mmHg 39%
    06:00 +36°C° 0 mm 2 mps 733 mmHg 40%
    07:00 +36°C° 0 mm 2 mps 733 mmHg 39%
    08:00 +37°C° 0 mm 3 mps 734 mmHg 37%
    09:00 +37°C° 0 mm 3 mps 734 mmHg 35%
    10:00 +38°C° 0 mm 3 mps 734 mmHg 33%
    11:00 +39°C° 0 mm 3 mps 733 mmHg 31%
    12:00 +40°C° 0 mm 3 mps 733 mmHg 28%
    13:00 +42°C° 0 mm 3 mps 732 mmHg 27%
    14:00 +42°C° 0 mm 3 mps 731 mmHg 26%
    15:00 +42°C° 0 mm 2 mps 730 mmHg 24%
    16:00 +42°C° 0.1 mm 2 mps 730 mmHg 24%
    17:00 +42°C° 0.1 mm 2 mps 730 mmHg 24%
    18:00 +42°C° 0.1 mm 2 mps 730 mmHg 24%
    19:00 +42°C° 0.4 mm 3 mps 731 mmHg 26%
    20:00 +41°C° 0.4 mm 4 mps 731 mmHg 28%
    21:00 +40°C° 0.4 mm 5 mps 732 mmHg 30%
    22:00 +40°C° 0.5 mm 4 mps 732 mmHg 31%
    23:00 +38°C° 0.5 mm 4 mps 732 mmHg 32%

    20 July, Friday

    Time Temperature Precipitation Wind Pressure Humidity
    00:00 +38°C° 0.5 mm 3 mps 732 mmHg 33%
    01:00 +37°C° 0.4 mm 2 mps 732 mmHg 34%
    02:00 +37°C° 0.4 mm 2 mps 732 mmHg 35%
    03:00 +35°C° 0.4 mm 1 mps 732 mmHg 36%
    04:00 +35°C° 0.1 mm 1 mps 732 mmHg 37%
    05:00 +36°C° 0.1 mm 2 mps 732 mmHg 39%
    06:00 +36°C° 0.1 mm 2 mps 733 mmHg 40%
    07:00 +36°C° 0 mm 2 mps 733 mmHg 39%
    08:00 +36°C° 0 mm 2 mps 734 mmHg 38%
    09:00 +37°C° 0 mm 3 mps 734 mmHg 37%
    10:00 +38°C° 0 mm 3 mps 734 mmHg 35%
    11:00 +39°C° 0 mm 3 mps 733 mmHg 33%
    12:00 +39°C° 0 mm 3 mps 733 mmHg 31%
    13:00 +40°C° 0 mm 3 mps 732 mmHg 29%
    14:00 +42°C° 0 mm 3 mps 731 mmHg 27%
    15:00 +43°C° 0 mm 3 mps 731 mmHg 25%
    16:00 +43°C° 0 mm 3 mps 731 mmHg 24%
    17:00 +43°C° 0 mm 3 mps 731 mmHg 24%
    18:00 +43°C° 0 mm 3 mps 731 mmHg 23%
    19:00 +42°C° 0 mm 4 mps 731 mmHg 25%
    20:00 +42°C° 0 mm 4 mps 732 mmHg 27%
    21:00 +41°C° 0 mm 5 mps 732 mmHg 29%
    22:00 +40°C° 0 mm 4 mps 732 mmHg 30%
    23:00 +40°C° 0 mm 4 mps 732 mmHg 31%

    21 July, Saturday

    Time Temperature Precipitation Wind Pressure Humidity
    00:00 +38°C° 0 mm 3 mps 732 mmHg 33%
    01:00 +38°C° 0 mm 3 mps 731 mmHg 34%
    02:00 +38°C° 0 mm 2 mps 731 mmHg 35%
    03:00 +36°C° 0 mm 1 mps 731 mmHg 36%
    04:00 +37°C° 0 mm 2 mps 731 mmHg 37%
    05:00 +37°C° 0 mm 2 mps 732 mmHg 37%
    06:00 +36°C° 0 mm 3 mps 732 mmHg 38%
    07:00 +37°C° 0 mm 3 mps 733 mmHg 37%
    08:00 +37°C° 0 mm 3 mps 733 mmHg 37%
    09:00 +38°C° 0 mm 4 mps 734 mmHg 36%
    10:00 +38°C° 0 mm 3 mps 733 mmHg 34%
    11:00 +39°C° 0 mm 3 mps 733 mmHg 32%
    12:00 +40°C° 0 mm 3 mps 733 mmHg 30%
    13:00 +42°C° 0 mm 3 mps 732 mmHg 28%
    14:00 +42°C° 0 mm 3 mps 731 mmHg 27%
    15:00 +42°C° 0 mm 2 mps 731 mmHg 25%
    16:00 +42°C° 0 mm 2 mps 731 mmHg 25%
    17:00 +43°C° 0 mm 3 mps 731 mmHg 25%
    18:00 +43°C° 0 mm 3 mps 731 mmHg 25%
    19:00 +42°C° 0.3 mm 3 mps 731 mmHg 28%
    20:00 +41°C° 0.3 mm 4 mps 732 mmHg 31%
    21:00 +40°C° 0.3 mm 4 mps 732 mmHg 34%
    22:00 +38°C° 0.5 mm 3 mps 732 mmHg 35%
    23:00 +38°C° 0.5 mm 2 mps 732 mmHg 37%
    Show more